FENGYUN 1C DEB, 31198

Orbit data source: Space-Track

FENGYUN 1C DEB, 31198 is space debris in SSO originally from a launch on Mon, 10 May 1999 UTC launched from the Taiyaun Space Center, China (TSC). Fengyun 1C debris stems from the Chinese weather satellite Fengyun-1C, which was intentionally destroyed by a Chinese anti-satellite missile in 2007. This event dramatically increased the amount of space debris, with thousands of trackable fragments posing hazards to satellites and human spaceflight. The Fengyun 1C debris cloud has become a focal point in discussions about space sustainability and the need for international regulations to prevent the creation of new debris.

Loading next visibility...
Identifier
31198, 1999-025BKC
Orbit
SSO
Country
Flag of CNCN / PRC
Related business
Manufacturer
Unknown
Mission
Spacecraft
Bus & Motor
Unknown
Mass
Unknown
Launch date (UTC)
1999-05-10 (27 years ago)
Launch vehicle
Unknown
Launch site
Taiyaun Space Center, China (TSC)
Object type
Payload
Rocket body
Debris
Shape & HBR
Unknown shape, 0.1 m
Radar Cross Section
Small (<0.1 m²)

Expand to show TLE details & history
Last TLE update: 2 days ago

TLE from 2 days ago
0 FENGYUN 1C DEB
1 31198U 99025BKC 26122.54649770  .00000058  00000-0  86903-4 0  9995
2 31198  98.6095 217.9455 0203408 333.5690  25.5198 13.75559965646898
Epoch: 2026-05-02T13:06Z
TLE epoch observation values (Epoch: 2026-05-02T13:06:57.401Z)
Latitude
-0.00001°
Longitude
160.74349°
Altitude
848.029 km
Speed
7.496 km/s
True Right ascension
14h 31m 46s
True Declination
0° 00' 00"
Sunlit
Object was in full shadow at epoch
Visualization orbit readout
Latitude
Unknown
Longitude
Unknown
Altitude
Unknown
Speed
Unknown
Apparent Right ascension
Unknown
Apparent Declination
Unknown
Sunlit
N/A
Visualization observer readout
Local Sidereal Time
16:37:11
Azimuth
Unknown
Elevation
Unknown
Doppler factor
Unknown
Orbital elements
Apogee altitude
1,126.496 km
Perigee altitude
827.282 km
Semi-major axis
7,355.026 km
Eccentricity
0.02034
Inclination
98.6095°
RAAN
217.9455°
Arg. of periapsis
333.569°
True anomaly
26.5475°
Mean anomaly
25.5198°
Eccentric anomaly
26.03127°
Mean motion
3.44086 °/min
Orbital period
104.63 mins
BSTAR
0.000086903
Loading maneuver chart data...
Computing Atmospheric mass density...
Loading historical data...
Loading historical data...
Loading historical data...
Loading historical data...
Loading historical data...
Loading historical data...
Loading historical data...

Documentation

Showing up to 5 results
|